Location: *
(32.8667°N, 13.1833°E)
Time: 07:37:15
(UTC+00:00)

Cosmos 1939 Rocket - Pass Details

Date: 18 July 2019
Orbit: 531 x 586 km, 97.4° (Epoch: 23 August)

Event Time Altitude Azimuth Distance (km) Brightness Sun altitude
Rises 18:39:42 0° 181° (S) 2,749 6.1 -5.4°
Reaches altitude 10° 18:41:53 10° 188° (S) 1,865 5.3 -5.8°
Maximum altitude 18:45:46 44° 261° (W) 797 4.1 -6.5°
Drops below altitude 10° 18:49:43 10° 334° (NNW) 1,901 6.5 -7.2°
Sets 18:51:59 0° 341° (NNW) 2,809 7.3 -7.6°
